Weather History for KPEX - August, 2013

Change the Weather History Date:

Friday, August 9, 2013

  Actual Average (KLJF) Record (KLJF)
Temperature  
Mean Temperature 60 °F -  
Max Temperature 71 °F 81 °F 93 °F (1958)
Min Temperature 50 °F 58 °F 46 °F (1972)
Degree Days  
Heating Degree Days 4    
Growing Degree Days 10 (Base 50)    
Moisture  
Dew Point 52 °F    
Average Humidity 74    
Maximum Humidity 99    
Minimum Humidity 44    
Precipitation  
Precipitation 0.09 in - - ()
Sea Level Pressure  
Sea Level Pressure 30.09 in    
Wind  
Wind Speed 3 mph (NW)    
Max Wind Speed 15 mph    
Max Gust Speed 23 mph    
Visibility 9 miles    
Events      
Averages and records for this station are not official NWS values.
T = Trace of Precipitation, MM = Missing Value Source: NWS Daily Summary

Daily Weather History Graph

Daily Weather History Graph

Search for Another Location

Airport or City:

Trip Planner

Search our weather history database for the weather conditions in past years. The results will help you decide how hot, cold, wet, or windy it might be!

Date:

Astronomy

Aug. 09, 2013 Rise Set
Actual Time 6:12 AM CDT 8:35 PM CDT
Civil Twilight 5:40 AM CDT 9:07 PM CDT
Nautical Twilight 4:58 AM CDT 9:48 PM CDT
Astronomical Twilight 4:12 AM CDT 10:34 PM CDT
Moon 9:11 AM CDT (8/9) 9:32 PM CDT (8/9)
Length of Visible Light 15h 27m
Length of Day
14h 22m
Waxing Crescent, 8% of the Moon is Illuminated
Aug 9
Waxing Crescent
Aug 14
First Quarter
Aug 20
Full
Aug 28
Last Quarter
Sep 5
New

Hourly Weather History & Observations

Time (CDT) Temp. Dew Point Humidity Pressure Visibility Wind Dir Wind Speed Gust Speed Precip Events Conditions
12:13 AM 57.6 °F 57.2 °F 99% 30.03 in 5.0 mi Calm Calm - N/A   Clear
12:32 AM 56.8 °F 56.3 °F 98% 30.04 in 5.0 mi Calm Calm - N/A   Clear
12:53 AM 56.3 °F 55.6 °F 97% 30.04 in 5.0 mi Calm Calm - N/A   Clear
1:13 AM 55.8 °F 55.4 °F 99% 30.04 in 5.0 mi Calm Calm - N/A   Clear
1:33 AM 55.2 °F 54.7 °F 98% 30.04 in 7.0 mi Calm Calm - N/A   Clear
1:52 AM 54.0 °F 53.6 °F 99% 30.04 in 7.0 mi Calm Calm - N/A   Clear
2:13 AM 54.0 °F 53.6 °F 99% 30.04 in 7.0 mi Calm Calm - N/A   Clear
2:32 AM 53.6 °F 52.9 °F 97% 30.04 in 7.0 mi Calm Calm - N/A   Clear
2:53 AM 53.4 °F 52.9 °F 98% 30.04 in 7.0 mi Calm Calm - N/A   Clear
3:13 AM 53.6 °F 52.9 °F 97% 30.04 in 5.0 mi Calm Calm - N/A   Clear
3:33 AM 52.7 °F 52.0 °F 97% 30.05 in 5.0 mi Calm Calm - N/A   Clear
3:53 AM 52.0 °F 51.4 °F 98% 30.05 in 5.0 mi Calm Calm - N/A   Clear
4:12 AM 51.8 °F 51.1 °F 97% 30.05 in 5.0 mi Calm Calm - N/A   Clear
4:33 AM 51.1 °F 50.5 °F 98% 30.04 in 5.0 mi Calm Calm - N/A   Clear
4:53 AM 50.7 °F 50.4 °F 99% 30.04 in 5.0 mi Calm Calm - N/A   Clear
5:13 AM 50.5 °F 50.2 °F 99% 30.04 in 5.0 mi Calm Calm - N/A   Clear
5:33 AM 50.4 °F 50.0 °F 99% 30.05 in 5.0 mi Calm Calm - N/A   Clear
5:53 AM 50.2 °F 50.0 °F 99% 30.05 in 5.0 mi Calm Calm - N/A   Clear
6:12 AM 50.4 °F 50.0 °F 99% 30.06 in 7.0 mi Calm Calm - N/A   Clear
6:33 AM 50.5 °F 50.2 °F 99% 30.06 in 5.0 mi Calm Calm - N/A   Clear
6:53 AM 50.5 °F 50.2 °F 99% 30.06 in 4.0 mi Calm Calm - N/A   Clear
7:13 AM 52.2 °F 51.8 °F 99% 30.06 in 5.0 mi Calm Calm - N/A   Clear
7:32 AM 53.6 °F 53.2 °F 99% 30.07 in 7.0 mi Calm Calm - N/A   Clear
7:53 AM 55.0 °F 54.5 °F 98% 30.07 in 10.0 mi Calm Calm - N/A   Clear
8:13 AM 57.0 °F 56.3 °F 97% 30.07 in 10.0 mi Calm Calm - N/A   Clear
8:32 AM 59.2 °F 57.6 °F 94% 30.08 in 10.0 mi Calm Calm - N/A   Clear
8:52 AM 60.8 °F 57.6 °F 89% 30.09 in 10.0 mi NW 5.8 mph - N/A   Clear
9:13 AM 62.6 °F 58.3 °F 86% 30.09 in 10.0 mi WNW 6.9 mph - N/A   Clear
9:32 AM 63.7 °F 58.1 °F 82% 30.10 in 10.0 mi NW 6.9 mph - N/A   Clear
9:52 AM 63.7 °F 56.1 °F 76% 30.10 in 10.0 mi WNW 6.9 mph - N/A   Clear
10:13 AM 64.0 °F 53.2 °F 68% 30.11 in 10.0 mi WNW 5.8 mph - N/A   Scattered Clouds
10:33 AM 65.3 °F 51.1 °F 60% 30.11 in 10.0 mi NW 11.5 mph - N/A   Mostly Cloudy
10:53 AM 65.8 °F 50.2 °F 57% 30.12 in 10.0 mi WNW 12.7 mph 16.1 mph N/A   Scattered Clouds
11:12 AM 67.1 °F 49.3 °F 53% 30.11 in 10.0 mi WNW 12.7 mph - N/A   Clear
11:33 AM 67.1 °F 47.5 °F 49% 30.11 in 10.0 mi NW 8.1 mph 18.4 mph N/A   Clear
11:52 AM 68.0 °F 48.2 °F 49% 30.11 in 10.0 mi WNW 9.2 mph 17.3 mph N/A   Clear
12:13 PM 68.4 °F 47.7 °F 48% 30.10 in 10.0 mi NW 11.5 mph 19.6 mph N/A   Clear
12:32 PM 68.9 °F 48.2 °F 48% 30.10 in 10.0 mi WNW 11.5 mph 20.7 mph N/A   Clear
12:53 PM 69.8 °F 47.7 °F 45% 30.10 in 10.0 mi WNW 9.2 mph 17.3 mph N/A   Scattered Clouds
1:13 PM 70.0 °F 48.2 °F 46% 30.09 in 10.0 mi WNW 15.0 mph 21.9 mph N/A   Scattered Clouds
1:32 PM 70.2 °F 48.0 °F 45% 30.09 in 10.0 mi NW 12.7 mph 18.4 mph N/A   Scattered Clouds
1:53 PM 70.7 °F 48.4 °F 45% 30.09 in 10.0 mi NW 10.4 mph 20.7 mph N/A   Scattered Clouds
2:13 PM 70.9 °F 49.3 °F 46% 30.09 in 10.0 mi NW 11.5 mph 23.0 mph N/A   Scattered Clouds
2:32 PM 71.2 °F 49.6 °F 46% 30.09 in 10.0 mi NW 12.7 mph 20.7 mph N/A   Scattered Clouds
2:53 PM 71.4 °F 49.3 °F 45% 30.09 in 10.0 mi WNW 11.5 mph 20.7 mph N/A   Scattered Clouds
3:13 PM 71.2 °F 49.6 °F 46% 30.09 in 10.0 mi NW 11.5 mph 19.6 mph N/A   Mostly Cloudy
3:33 PM 69.8 °F 48.4 °F 46% 30.09 in 10.0 mi WNW 10.4 mph 18.4 mph N/A   Scattered Clouds
3:53 PM 70.3 °F 49.3 °F 47% 30.09 in 10.0 mi NW 10.4 mph - N/A   Mostly Cloudy
4:13 PM 70.9 °F 48.7 °F 45% 30.09 in 10.0 mi NW 10.4 mph 17.3 mph N/A   Overcast
4:33 PM 71.1 °F 48.0 °F 44% 30.10 in 10.0 mi WNW 13.8 mph 18.4 mph N/A   Mostly Cloudy
4:53 PM 71.6 °F 48.7 °F 44% 30.09 in 10.0 mi NW 15.0 mph 23.0 mph N/A   Scattered Clouds
5:12 PM 71.6 °F 50.0 °F 46% 30.10 in 10.0 mi NW 13.8 mph 19.6 mph N/A   Scattered Clouds
5:33 PM 69.8 °F 48.4 °F 46% 30.10 in 10.0 mi NW 6.9 mph 10.4 mph N/A   Overcast
5:53 PM 68.9 °F 49.8 °F 51% 30.10 in 10.0 mi NNW 9.2 mph - N/A   Overcast
6:12 PM 68.4 °F 50.7 °F 53% 30.10 in 10.0 mi NW 5.8 mph - N/A   Overcast
6:33 PM 68.0 °F 50.5 °F 54% 30.10 in 10.0 mi NW 4.6 mph - N/A   Overcast
6:53 PM 67.6 °F 50.5 °F 54% 30.11 in 10.0 mi NW 5.8 mph - N/A   Overcast
7:13 PM 67.3 °F 50.4 °F 55% 30.11 in 10.0 mi NW 6.9 mph - N/A   Overcast
7:33 PM 66.6 °F 51.1 °F 57% 30.11 in 10.0 mi Calm Calm - N/A   Overcast
7:53 PM 65.8 °F 52.2 °F 61% 30.11 in 10.0 mi Calm Calm - N/A   Overcast
8:12 PM 65.1 °F 52.0 °F 62% 30.11 in 10.0 mi Calm Calm - N/A   Overcast
8:33 PM 64.0 °F 52.7 °F 67% 30.12 in 10.0 mi Calm Calm - N/A   Overcast
8:53 PM 63.5 °F 54.9 °F 73% 30.13 in 10.0 mi Calm Calm - N/A   Overcast
9:13 PM 62.6 °F 55.2 °F 77% 30.14 in 10.0 mi Calm Calm - N/A   Overcast
9:33 PM 62.6 °F 55.9 °F 79% 30.14 in 10.0 mi Calm Calm - N/A   Overcast
9:53 PM 62.1 °F 57.4 °F 85% 30.14 in 10.0 mi Calm Calm - N/A   Overcast
10:13 PM 61.7 °F 57.4 °F 86% 30.14 in 10.0 mi Calm Calm - N/A   Overcast
10:33 PM 61.5 °F 57.0 °F 85% 30.15 in 10.0 mi Calm Calm - N/A   Overcast
10:53 PM 61.7 °F 57.2 °F 85% 30.14 in 10.0 mi Calm Calm - N/A   Overcast
11:13 PM 60.8 °F 57.4 °F 88% 30.14 in 10.0 mi Calm Calm - N/A   Overcast
11:33 PM 60.4 °F 57.6 °F 90% 30.15 in 10.0 mi Calm Calm - N/A   Overcast
11:53 PM 60.1 °F 57.7 °F 92% 30.16 in 10.0 mi Calm Calm - N/A   Overcast